Regional Weather Roundup
Issued by NWS

Home | Current Version | Previous Version | Text Only | Print | Product List | Glossary Off
Versions: 1 2 3 4 5 6 7 8 9 10 11 12 13 14 15 16 17 18 19 20 21 22 23 24 25 26 27 28 29 30 31 32 33 34 35 36 37 38 39 40 41 42 43 44 45 46 47 48 49 50

000
ASUS43 KLSX 312207
RWRMO

WEATHER SUMMARY FOR MISSOURI
NATIONAL WEATHER SERVICE SPRINGFIELD MO
500 PM CDT WED AUG 31 2016

NOTE: "FAIR" INDICATES FEW OR NO CLOUDS BELOW 12,000 FEET WITH NO
       SIGNIFICANT WEATHER AND/OR OBSTRUCTIONS TO VISIBILITY.
       CURRENT SKY AND/OR WEATHER CONDITIONS ARE NOT AVAILABLE FOR
       CHILLICOTHE AND FARMINGTON.

MOZ001>031-035>038-043-044-053-054-312300-
...NORTHERN AND WESTERN MISSOURI...

CITY           SKY/WX    TMP DP  RH WIND       PRES   REMARKS
KANSAS CTY INT PTSUNNY   80  67  64 N8        30.09F
KANSAS C DTWN  CLOUDY    83  68  60 NE6       30.07S
LEE`S SUMMIT   CLOUDY    79  68  69 N10       30.09S
ST JOSEPH      SUNNY     78  64  61 N8        30.10S
CHILLICOTHE      N/A     80  66  62 VRB6      30.10R
KIRKSVILLE     CLOUDY    76  64  66 N14       30.10S

$$
MOZ066>068-077>081-088>096-101>105-312300-
...SOUTHWEST MISSOURI...

CITY           SKY/WX    TMP DP  RH WIND       PRES   REMARKS
SPRINGFIELD    MOSUNNY   77  68  73 N9        30.05F
JOPLIN         LGT RAIN  71  69  93 NE12      30.06S
BRANSON        PTSUNNY   84  72  65 NE10      30.04F

$$
MOZ032>034-039>042-045>050-055>058-069>072-312300-
...CENTRAL MISSOURI...

CITY           SKY/WX    TMP DP  RH WIND       PRES   REMARKS
COLUMBIA       LGT RAIN  75  72  90 SW5       30.05F
JEFFERSON CITY CLOUDY    77  71  82 E5        30.04S
ROLLA          CLOUDY    75  72  90 N8        30.04F
SEDALIA        LGT RAIN  76  70  82 CALM      30.07S
WHITEMAN AFB   PTSUNNY   77  75  95 N8        30.06R
OSAGE BEACH    CLOUDY    73  71  93 CALM      30.06F

$$
MOZ051-052-059>065-312300-
...EAST CENTRAL MISSOURI...

CITY           SKY/WX    TMP DP  RH WIND       PRES   REMARKS
ST LOUIS INTL  CLOUDY    82  73  74 N6        30.03S
SPIRIT OF STL  CLOUDY    81  73  76 N7        30.01F
ST CHARLES     CLOUDY    75  67  76 N13       30.02S

$$
MOZ072>076-082>087-097>100-106>115-312300-
...SOUTH CENTRAL AND SOUTHEAST MISSOURI...

CITY           SKY/WX    TMP DP  RH WIND       PRES   REMARKS
CAPE GIRARDEAU MOSUNNY   88  69  53 N12G23    29.96S HX  92
FARMINGTON     CLOUDY    79  71  76 N12       30.04R
POPLAR BLUFF   MOSUNNY   87  73  62 N8        29.95S HX  94
WEST PLAINS    CLOUDY    82  69  64 N8        30.05F

$$


USA.gov is the U.S. government's official web portal to all federal, state and local government web resources and services.